Weather History for Visalia, CA

Change the Weather History Date:

Monday, April 21, 2014

  Actual Average Record
Temperature  
Mean Temperature 68 °F -  
Max Temperature 82 °F 73 °F 99 °F (1931)
Min Temperature 53 °F 48 °F 37 °F (2008)
Cooling Degree Days 2    
Growing Degree Days 18 (Base 50)    
Moisture  
Dew Point 47 °F    
Average Humidity 49    
Maximum Humidity 72    
Minimum Humidity 30    
Precipitation  
Precipitation 0.00 in - - ()
Sea Level Pressure  
Sea Level Pressure 29.98 in    
Wind  
Wind Speed 4 mph (WSW)    
Max Wind Speed 15 mph    
Max Gust Speed -    
Visibility 10 miles    
Events      
Averages and records for this station are not official NWS values.
T = Trace of Precipitation, MM = Missing Value Source: NWS Daily Summary

Daily Weather History Graph

Daily Weather History Graph

Search for Another Location

Airport:

Trip Planner

Search our weather history database for the weather conditions in past years. The results will help you decide how hot, cold, wet, or windy it might be!

Date:

Astronomy

Apr. 21, 2014 Rise Set
Actual Time 6:16 AM PDT 7:36 PM PDT
Civil Twilight 5:49 AM PDT 8:03 PM PDT
Nautical Twilight 5:17 AM PDT 8:36 PM PDT
Astronomical Twilight 4:43 AM PDT 9:09 PM PDT
Moon 1:08 AM PDT (4/21) 11:50 AM PDT (4/21)
Length of Visible Light 14h 14m
Length of Day
13h 20m
Waning Gibbous, 56% of the Moon is Illuminated
Apr 21
Waning Gibbous
Apr 22
Last Quarter
Apr 28
New
May 6
First Quarter
May 14
Full

Hourly Weather History & Observations

Time (PDT) Temp. Dew Point Humidity Pressure Visibility Wind Dir Wind Speed Gust Speed Precip Events Conditions
12:15 AM 59.0 °F 46.4 °F 63% 30.05 in 10.0 mi ESE 4.6 mph - N/A   Clear
12:35 AM 57.2 °F 46.4 °F 67% 30.05 in 10.0 mi South 3.5 mph - N/A   Clear
12:55 AM 57.2 °F 46.4 °F 67% 30.06 in 10.0 mi SSW 4.6 mph - N/A   Clear
1:15 AM 57.2 °F 46.4 °F 67% 30.05 in 10.0 mi South 5.8 mph - N/A   Clear
1:35 AM 57.2 °F 46.4 °F 67% 30.05 in 10.0 mi South 3.5 mph - N/A   Clear
1:55 AM 57.2 °F 46.4 °F 67% 30.05 in 10.0 mi South 3.5 mph - N/A   Clear
2:15 AM 57.2 °F 46.4 °F 67% 30.04 in 10.0 mi Calm Calm - N/A   Clear
2:35 AM 57.2 °F 46.4 °F 67% 30.04 in 10.0 mi Calm Calm - N/A   Clear
2:55 AM 57.2 °F 46.4 °F 67% 30.04 in 10.0 mi ESE 4.6 mph - N/A   Clear
3:15 AM 55.4 °F 44.6 °F 67% 30.03 in 10.0 mi East 6.9 mph - N/A   Clear
3:35 AM 55.4 °F 44.6 °F 67% 30.03 in 10.0 mi ESE 3.5 mph - N/A   Clear
3:55 AM 53.6 °F 44.6 °F 72% 30.03 in 10.0 mi ESE 4.6 mph - N/A   Clear
4:15 AM 53.6 °F 44.6 °F 72% 30.03 in 10.0 mi Calm Calm - N/A   Clear
4:35 AM 55.4 °F 44.6 °F 67% 30.03 in 10.0 mi SE 3.5 mph - N/A   Clear
4:55 AM 53.6 °F 44.6 °F 72% 30.03 in 10.0 mi Calm Calm - N/A   Clear
5:15 AM 55.4 °F 44.6 °F 67% 30.03 in 10.0 mi Calm Calm - N/A   Clear
5:35 AM 53.6 °F 44.6 °F 72% 30.03 in 10.0 mi Calm Calm - N/A   Clear
5:55 AM 53.6 °F 42.8 °F 67% 30.03 in 10.0 mi Calm Calm - N/A   Clear
6:15 AM 53.6 °F 44.6 °F 72% 30.03 in 10.0 mi East 3.5 mph - N/A   Clear
6:35 AM 53.6 °F 42.8 °F 67% 30.03 in 10.0 mi East 3.5 mph - N/A   Clear
6:55 AM 55.4 °F 44.6 °F 67% 30.03 in 10.0 mi East 3.5 mph - N/A   Clear
7:15 AM 55.4 °F 46.4 °F 72% 30.03 in 10.0 mi ESE 4.6 mph - N/A   Clear
7:35 AM 59.0 °F 46.4 °F 63% 30.04 in 10.0 mi SE 4.6 mph - N/A   Clear
7:55 AM 60.8 °F 46.4 °F 59% 30.05 in 10.0 mi SSE 4.6 mph - N/A   Clear
8:15 AM 62.6 °F 46.4 °F 55% 30.05 in 10.0 mi SE 4.6 mph - N/A   Clear
8:35 AM 64.4 °F 46.4 °F 52% 30.05 in 8.0 mi South 4.6 mph - N/A   Clear
8:55 AM 64.4 °F 48.2 °F 56% 30.05 in 10.0 mi South 6.9 mph - N/A   Clear
9:15 AM 66.2 °F 48.2 °F 52% 30.05 in 10.0 mi SSW 4.6 mph - N/A   Clear
9:35 AM 68.0 °F 48.2 °F 49% 30.05 in 10.0 mi SSW 4.6 mph - N/A   Clear
9:55 AM 69.8 °F 50.0 °F 49% 30.04 in 10.0 mi SSW 5.8 mph - N/A   Clear
10:15 AM 71.6 °F 48.2 °F 43% 30.04 in 10.0 mi SSW 5.8 mph - N/A   Clear
10:35 AM 71.6 °F 50.0 °F 46% 30.04 in 9.0 mi SSW 4.6 mph - N/A   Clear
10:55 AM 73.4 °F 51.8 °F 47% 30.04 in 10.0 mi SW 5.8 mph - N/A   Clear
11:15 AM 73.4 °F 50.0 °F 44% 30.04 in 10.0 mi SSW 4.6 mph - N/A   Clear
11:35 AM 75.2 °F 50.0 °F 41% 30.04 in 10.0 mi South 4.6 mph - N/A   Clear
11:55 AM 78.8 °F 51.8 °F 39% 30.04 in 10.0 mi WNW 8.1 mph - N/A   Clear
12:15 PM 78.8 °F 48.2 °F 34% 30.04 in 10.0 mi NW 5.8 mph - N/A   Clear
12:35 PM 78.8 °F 46.4 °F 32% 30.03 in 10.0 mi West 6.9 mph - N/A   Clear
12:55 PM 80.6 °F 46.4 °F 30% 30.01 in 10.0 mi Calm Calm - N/A   Clear
1:15 PM 80.6 °F 46.4 °F 30% 30.00 in 10.0 mi WNW 4.6 mph - N/A   Clear
1:35 PM 80.6 °F 46.4 °F 30% 29.98 in 10.0 mi WSW 5.8 mph - N/A   Clear
1:55 PM 80.6 °F 46.4 °F 30% 29.98 in 10.0 mi Calm Calm - N/A   Clear
2:15 PM 80.6 °F 48.2 °F 32% 29.97 in 10.0 mi WNW 4.6 mph - N/A   Clear
2:35 PM 80.6 °F 48.2 °F 32% 29.97 in 10.0 mi SSW 3.5 mph - N/A   Clear
2:55 PM 82.4 °F 48.2 °F 30% 29.97 in 10.0 mi Calm Calm - N/A   Clear
3:15 PM 82.4 °F 48.2 °F 30% 29.95 in 10.0 mi West 6.9 mph - N/A   Clear
3:35 PM 82.4 °F 48.2 °F 30% 29.94 in 10.0 mi West 6.9 mph - N/A   Clear
3:55 PM 82.4 °F 48.2 °F 30% 29.94 in 10.0 mi NW 9.2 mph - N/A   Clear
4:15 PM 82.4 °F 48.2 °F 30% 29.93 in 6.0 mi West 5.8 mph - N/A   Clear
4:35 PM 80.6 °F 48.2 °F 32% 29.92 in 10.0 mi West 8.1 mph - N/A   Clear
4:55 PM 80.6 °F 48.2 °F 32% 29.92 in 10.0 mi WNW 6.9 mph - N/A   Clear
5:15 PM 80.6 °F 48.2 °F 32% 29.91 in 10.0 mi WNW 6.9 mph - N/A   Clear
5:35 PM 80.6 °F 48.2 °F 32% 29.90 in 10.0 mi WNW 5.8 mph - N/A   Clear
5:55 PM 78.8 °F 48.2 °F 34% 29.89 in 10.0 mi NNW 4.6 mph - N/A   Clear
6:15 PM 80.6 °F 46.4 °F 30% 29.89 in 10.0 mi NW 5.8 mph - N/A   Clear
6:35 PM 78.8 °F 48.2 °F 34% 29.88 in 10.0 mi NNW 5.8 mph - N/A   Clear
6:55 PM 78.8 °F 46.4 °F 32% 29.87 in 10.0 mi NNW 5.8 mph - N/A   Clear
7:15 PM 78.8 °F 46.4 °F 32% 29.87 in 10.0 mi NNW 4.6 mph - N/A   Clear
7:35 PM 77.0 °F 46.4 °F 34% 29.85 in 10.0 mi Calm Calm - N/A   Clear
7:55 PM 71.6 °F 51.8 °F 50% 29.87 in 10.0 mi Calm Calm - N/A   Clear
8:15 PM 71.6 °F 51.8 °F 50% 29.86 in 10.0 mi Calm Calm - N/A   Clear
8:35 PM 71.6 °F 51.8 °F 50% 29.88 in 10.0 mi Calm Calm - N/A   Clear
8:55 PM 69.8 °F 53.6 °F 56% 29.87 in 10.0 mi West 6.9 mph - N/A   Clear
9:15 PM 68.0 °F 51.8 °F 56% 29.89 in 10.0 mi WNW 4.6 mph - N/A   Clear
9:35 PM 68.0 °F 51.8 °F 56% 29.89 in 10.0 mi WNW 3.5 mph - N/A   Clear
9:55 PM 69.8 °F 51.8 °F 53% 29.89 in 10.0 mi Calm Calm - N/A   Clear
10:15 PM 69.8 °F 50.0 °F 49% 29.89 in 10.0 mi Calm Calm - N/A   Clear
10:35 PM 69.8 °F 48.2 °F 46% 29.89 in 10.0 mi WNW 3.5 mph - N/A   Clear
10:55 PM 69.8 °F 48.2 °F 46% 29.90 in 10.0 mi NW 12.7 mph - N/A   Clear
11:15 PM 68.0 °F 44.6 °F 43% 29.90 in 10.0 mi NW 15.0 mph - N/A   Clear
11:35 PM 66.2 °F 41.0 °F 40% 29.90 in 10.0 mi NW 10.4 mph - N/A   Clear
11:55 PM 66.2 °F 39.2 °F 37% 29.91 in 10.0 mi WNW 9.2 mph - N/A   Clear